sat.trackr.live / text

‹ back to catalog

STARLINK-11392 [DTC]

NORAD 63056 · 2025-035E

PAYLOAD ACTIVE UNKNOWN

§ Identity

Operator
Country
US
Launch date
2025-02-21
Launch site
AFETR
Launch vehicle
Mass (kg)
RCS (m²)

Purposes: comms

External: N2YO · Heavens-Above · Gunter

§ Orbital elements

Epoch: 2026-05-25T01:58:12.104256Z

Period
91.67 min
Inclination
43.0001°
Eccentricity
0.0001235
Mean motion
15.70878765 rev/d
Perigee alt
355.6 km
Apogee alt
357.2 km
Semi-major
6,734.5 km
B*
1.3461e-3
RAAN
275.0323°
Arg perigee
58.6909°
Mean anomaly
301.4080°
Rev number
7,323

§ Raw data

STARLINK-11392 [DTC]1 63056U 25035E   26145.08208454  .00176269  00000+0  13461-2 0  99912 63056  43.0001 275.0323 0001235  58.6909 301.4080 15.70878765 73235

JSON: /api/v1/satellites/63056 · /tle

For live sub-satellite position, see the globe view (requires WebGL).

§ Visibility from observer

Set your observer location to see the next 7 days of passes ≥ 10°. The values pass through the URL so the page stays shareable.

No JS? Fill the form by hand. The geolocation button needs JavaScript.